{"data":{"norad_id":57503,"epoch":"2026-05-24T18:52:42.281472Z","epoch_age_seconds":100323,"freshness":"FRESH","line1":"1 57503U 23113J   26144.78660048  .00003135  00000+0  12339-3 0  9998","line2":"2 57503  43.0028 306.2604 0002852 252.7131 107.3409 15.27583326155207","mean_motion":15.27583326,"eccentricity":0.0002852,"inclination_deg":43.0028,"raan_deg":306.2604,"arg_perigee_deg":252.7131,"mean_anomaly_deg":107.3409,"bstar":0.00012339,"rev_number":15520,"period_min":94.266543467102,"perigee_km":481.08232938298,"apogee_km":484.99594425142,"semimajor_km":6861.1761368172,"source":"CELESTRAK","updated_at":"2026-05-25T13:38:18.328350Z"}}